Location: Barrio de Canyet
(41.4665°N, 2.2381°E)
Time: 07:58:29
(UTC+00:00)

Abrixas rocket - Pass Details

Date: 09 April 2020
Orbit: 344 x 351 km, 48.4° (Epoch: 03 June)

Event Time Altitude Azimuth Distance (km) Brightness Sun altitude
Rises 19:52:00 0° 300° (WNW) 2,167 7.7 -16.1°
Reaches altitude 10° 19:54:04 10° 307° (NW) 1,325 6.1 -16.5°
Maximum altitude 19:56:56 44° 22° (NNE) 501 2.6 -17.0°
Enters shadow 19:57:24 40° 52° (NE) 539 2.6 -17.0°
